Torna al catalogo

STARLINK-30267

AttivoComunicazioniVLEO
NORAD 57663·PAYLOAD·🇺🇸 United States

Lanciato Aug 22, 2023 da Vandenberg Space Force Base

Loading…

Prossimi Passaggi (prossime 24 ore)

TLE

AggiornatoSource: CelesTrak SupGP

Epoca: Sep 15, 2026, 01:30 UTC

1 57663C 23124A   26258.06298611 -.00024723  00000+0 -73057-3 0  2587
2 57663  53.1591  45.2481 0000979  83.1301 109.9728 15.34397278    14

Traccia STARLINK-30267 in tempo reale con AllMySat

Download on the App Store